Zurück zum Katalog

CZ-6A DEB

AktivPO
NORAD 61314·DEBRIS·🇨🇳 China

Gestartet Aug 6, 2024 von Taiyuan Satellite Launch Center

Loading…

Nächste Überflüge (nächste 24 Stunden)

TLE

AktuellSource: Space-Track

Epoche: Sep 14, 2026, 09:45 UTC

1 61314U 24140UB  26257.40659985  .00004238  00000-0  75599-3 0  9999
2 61314  88.9274 252.3681 0099322 308.3712  50.8610 14.63638784108932

Verfolge CZ-6A DEB in Echtzeit mit AllMySat

Download on the App Store